Weather Roundup
Issued by NWS Chicago, IL

Home | Current Version | Previous Version | Text Only | Print | Product List | Glossary Off
Versions: 1 2 3 4 5 6 7 8 9 10 11 12 13 14 15 16 17 18 19 20 21 22 23 24 25 26 27 28 29 30 31 32 33 34 35 36 37 38 39 40 41 42 43 44 45 46 47 48 49 50

685
NZUS59 KLOT 200009
HRRLOT

CHICAGO AREA WEATHER ROUNDUP
NATIONAL WEATHER SERVICE CHICAGO/ROMEOVILLE IL
700 PM CDT THU OCT 19 2017

NOTE: "FAIR" INDICATES FEW OR NO CLOUDS BELOW 12,000 FEET WITH NO
SIGNIFICANT WEATHER AND/OR OBSTRUCTIONS TO VISIBILITY.

* THESE STATIONS ARE NOT UNDER NWS QUALITY CONTROL. THEY ALSO MAY NOT
  REPORT WEATHER SUCH AS PRECIPITATION OR FOG.

ILZ005-006-012>014-019>023-200100-
NORTHEAST ILLINOIS

CITY           SKY/WX    TMP DP  RH WIND       PRES   REMARKS
OHARE          CLOUDY    57  28  33 SE8       30.16S
6HR MIN TEMP:  57; 6HR MAX TEMP:  70;

MIDWAY         CLOUDY    60  32  34 SE6       30.17S
6HR MIN TEMP:  60; 6HR MAX TEMP:  69;

AURORA         CLOUDY    56  39  53 CALM      30.16S
6HR MIN TEMP:  56; 6HR MAX TEMP:  71;

LANSING*       CLOUDY    58  38  49 E3        30.18S
JOLIET*        CLOUDY    61  38  43 E5        30.16S
WAUKEGAN       CLEAR     56  33  42 S6        30.16S
6HR MIN TEMP:  56; 6HR MAX TEMP:  65;

DUPAGE AIRPORT CLOUDY    58  38  47 SE6       30.15S
6HR MIN TEMP:  57; 6HR MAX TEMP:  70;

WHEELING       CLEAR     56  31  38 SE5       30.18R
6HR MIN TEMP:  56; 6HR MAX TEMP:  69;

KANKAKEE*      PTCLDY    60  44  54 E5        30.17S
MORRIS*        CLOUDY    64  33  31 E5        30.14S
LEWIS AIRPORT* CLOUDY    59  35  40 E6        30.16S
NORTHERLY ISL    N/A     57  47  69 SE5         N/A
$$

WIZ051-052-058>065-066-070>072-200100-
SOUTHEAST WISCONSIN

CITY           SKY/WX    TMP DP  RH WIND       PRES   REMARKS
MILWAUKEE      PTCLDY    58  26  29 S6        30.16R
6HR MIN TEMP:  58; 6HR MAX TEMP:  68;

KENOSHA*       CLEAR     54  27  35 S8        30.16S
RACINE*        CLEAR     57  22  25 S7        30.17S
BURLINGTON     CLEAR     55  36  47 SE6       30.15S
WAUKESHA       CLEAR     55  34  44 SE6       30.15R
WEST BEND      CLEAR     57  32  38 CALM      30.13R
$$

INZ001>003-010>013-019-020-200100-
NORTHWEST INDIANA

CITY           SKY/WX    TMP DP  RH WIND       PRES   REMARKS
GARY*          PTCLDY    52  43  71 SE3       30.18S
MICHIGAN CITY* NOT AVBL
RENSSELAER*    NOT AVBL
VALPARAISO     CLOUDY    56  39  53 CALM      30.19S
$$

LMZ740>746-200100-
SOUTHERN LAKE MICHIGAN

STATION/POSITION TIME  SKY/WX   TEMP WIND        PRES    VSBY
                                AIR  DIR/SP/G
                 (UTC)          (F)  (DEG/KT/KT) (MB)    (MI)
HARRISON CRIB    2300            60  140/  9/ 10   N/A
BURNHAM HARBOR   0000            57  130/  6/  7   N/A
CALUMET HARBOR   2348            59  100/  5/  6 1021.2R
BURNS HARBOR     0000            62  130/  4/  7 1022.4
MICHIGAN CITY    2340            58   80/  4/  5   N/A
$$

ABBREVIATIONS USED IN REMARKS
   TC - TEMPERATURE IN CELSIUS
  WCI - WIND CHILL INDEX
   HX - HEAT INDEX
  VSB - VISIBILITY
$$




USA.gov is the U.S. government's official web portal to all federal, state and local government web resources and services.